Hourly Data Report for September 12, 2020

SHEARWATER RCS
NOVA SCOTIA
Current Station Operator: ECCC - MSC

44°37'47.000" N
63°30'48.000" W
24.00 m
8205092
71264
AAW

Download Data

Hourly Data (September 2020)
Hourly Data Report for September 12, 2020
TIME Temp Definition
°C
Dew Point Definition
°C
Rel Hum Definition
%
Wind Dir Definition
10's deg

Wind Spd Definition
km/h
Visibility Definition
km
Stn Press Definition
kPa
Hmdx Definition


Wind Chill Definition


Weather Definition


00:00 9.1 6.6 85 34 7   102.12     LegendNANA
01:00 8.7 6.6 87 34 8   102.15     LegendNANA
02:00 8.3 6.3 88 34 5   102.17     LegendNANA
03:00 7.6 6.5 93 32 6   102.19     LegendNANA
04:00 7.6 6.4 93 32 7   102.22     LegendNANA
05:00 8.0 6.8 92 33 9   102.27     LegendNANA
06:00 7.1 5.8 91 23 2   102.30     LegendNANA
07:00 9.5 7.8 89 32 3   102.35     LegendNANA
08:00 12.7 8.1 74 32 9   102.39     LegendNANA
09:00 14.5 9.2 70 29 6   102.42     LegendNANA
10:00 15.6 9.7 68 24 6   102.42     LegendNANA
11:00 17.5 5.9 46 25 9   102.40     LegendNANA
12:00 18.4 7.1 48 25 7   102.39     LegendNANA
13:00 18.0 9.3 57 19 16   102.36     LegendNANA
14:00 18.3 8.3 52 18 16   102.33     LegendNANA
15:00 18.3 9.4 56 18 15   102.29     LegendNANA
16:00 18.1 9.5 57 19 17   102.29     LegendNANA
17:00 17.7 9.1 57 19 16   102.32     LegendNANA
18:00 16.5 9.5 63 19 10   102.33     LegendNANA
19:00 14.4 9.5 72 21 2   102.38     LegendNANA
20:00 13.4 9.5 77 24 3   102.42     LegendNANA
21:00 12.7 9.4 80 22 1   102.45     LegendNANA
22:00 12.8 9.7 82 24 4   102.46     LegendNANA
23:00 11.8 9.6 86 24 1   102.42     LegendNANA

Notes on Data Quality.

Legend

  • E = Estimated
  • M = Missing
  • NA = Not Available*
  • [empty] = Indicates an unobserved value
Date modified: